DL2JNL Weather Reports


time (UTC)temp
C
wind
direction
speed
KPH
gust
KPH
rain 1hr
cm
rain 24hr
cm
rain mn
cm
humidity
%
barometer
mb
20260506111550 11 345 1.6 8.0 0.00 2.84 0.41 87 1006.2
20260506111041 11 334 0.0 6.4 0.00 2.84 0.41 87 1006.2
20260506110541 11 304 0.0 6.4 0.00 2.84 0.41 87 1006.2
20260506110109 11 281 0.0 6.4 0.00 2.84 0.41 87 1006.2
20260506105541 11 285 0.0 8.0 0.00 2.84 0.41 86 1006.2
20260506105046 11 263 0.0 8.0 0.00 2.84 0.41 87 1006.2
20260506104603 11 297 0.0 6.4 0.00 2.84 0.41 87 1006.3
20260506104041 11 278 1.6 6.4 0.00 2.84 0.41 87 1006.2
20260506103541 11 12 1.6 6.4 0.00 2.84 0.41 87 1006.1
20260506103049 11 14 0.0 4.8 0.00 2.84 0.41 87 1006.1
20260506102544 11 0 0.0 4.8 0.00 2.84 0.41 88 1006.3
20260506102045 11 0 0.0 4.8 0.00 2.84 0.41 88 1006.2
20260506101552 11 0 0.0 4.8 0.00 2.84 0.41 88 1006.1
20260506101041 11 353 0.0 6.4 0.00 2.84 0.41 88 1006.1
20260506100543 11 0 0.0 6.4 0.00 2.84 0.41 88 1006.0
20260506100058 11 345 0.0 6.4 0.00 2.84 0.41 88 1006.0
20260506095542 11 316 0.0 4.8 0.00 2.84 0.41 88 1006.0
20260506095042 11 295 0.0 4.8 0.00 2.84 0.41 88 1005.9
20260506094600 11 0 0.0 4.8 0.00 2.84 0.41 88 1006.0
20260506094041 11 263 0.0 8.0 0.00 2.84 0.41 88 1006.0
20260506093541 11 295 0.0 11.3 0.00 2.84 0.41 89 1006.0
20260506093050 11 342 0.0 11.3 0.00 2.84 0.41 89 1006.0
20260506092541 11 340 1.6 6.4 0.00 2.84 0.41 89 1005.9
20260506092041 11 292 0.0 6.4 0.00 2.84 0.41 89 1005.8
20260506091552 11 0 0.0 1.6 0.00 2.84 0.41 90 1005.9
20260506091043 11 0 0.0 4.8 0.00 2.84 0.41 90 1005.9
20260506090540 11 0 0.0 6.4 0.00 2.84 0.41 90 1006.0
20260506090053 11 11 0.0 6.4 0.00 2.84 0.41 90 1005.9
20260506085541 11 0 0.0 6.4 0.00 2.84 0.41 90 1005.9
20260506085041 11 295 0.0 6.4 0.00 2.84 0.41 90 1005.9
20260506084614 11 0 0.0 8.0 0.00 2.84 0.41 90 1005.9
20260506084041 11 0 0.0 8.0 0.00 2.84 0.41 90 1005.7
20260506083542 11 291 0.0 8.0 0.00 2.84 0.41 90 1005.8
20260506083050 11 305 0.0 4.8 0.00 2.84 0.41 91 1005.7
20260506082543 11 249 0.0 4.8 0.00 2.84 0.41 91 1005.6
20260506082043 11 269 0.0 1.6 0.00 2.84 0.41 91 1005.4
20260506081557 11 0 0.0 1.6 0.00 2.84 0.41 92 1005.5
20260506081041 11 0 0.0 1.6 0.00 2.84 0.41 92 1005.5
20260506080541 11 0 0.0 1.6 0.00 2.84 0.41 92 1005.4
20260506073050 11 0 0.0 0.0 0.00 2.84 0.41 93 1005.4
20260506072542 11 0 0.0 0.0 0.00 2.84 0.41 94 1005.4
20260506072042 10 0 0.0 1.6 0.00 2.84 0.41 93 1005.5
20260506071549 10 0 0.0 1.6 0.00 2.84 0.41 93 1005.4
20260506071038 10 342 0.0 1.6 0.00 2.84 0.41 94 1005.3
20260506070542 10 0 0.0 1.6 0.00 2.84 0.41 94 1005.5
20260506062041 10 0 0.0 1.6 0.00 2.84 0.41 94 1005.4
20260506061555 10 0 0.0 1.6 0.03 2.84 0.41 94 1005.4
20260506061043 10 0 0.0 1.6 0.03 2.84 0.41 93 1005.4
20260506060542 10 0 0.0 1.6 0.03 2.84 0.41 94 1005.3
20260506051042 10 0 0.0 0.0 0.05 2.82 0.36 93 1005.4
20260506050541 10 0 0.0 0.0 0.05 2.82 0.36 94 1005.5
20260506045041 9 0 0.0 0.0 0.00 2.77 0.33 93 1005.4
20260506044553 9 0 0.0 0.0 0.00 2.77 0.33 93 1005.5
20260506044045 9 0 0.0 0.0 0.00 2.77 0.33 93 1005.4
20260506043544 9 0 0.0 1.6 0.00 2.77 0.33 93 1005.2
20260506043049 9 0 0.0 1.6 0.03 2.77 0.33 93 1005.4
20260506042542 9 0 0.0 0.0 0.00 2.74 0.30 93 1005.2
20260506042041 9 0 0.0 0.0 0.00 2.74 0.30 93 1005.3
20260506041556 9 0 0.0 0.0 0.00 2.74 0.30 93 1005.2
20260506041038 9 0 0.0 1.6 0.00 2.74 0.30 93 1005.2
20260506040542 9 0 0.0 1.6 0.00 2.74 0.30 93 1005.3
20260506040050 9 0 0.0 1.6 0.03 2.74 0.30 93 1005.3
20260506035541 9 302 0.0 1.6 0.03 2.92 0.30 93 1005.4
20260506035041 9 0 0.0 1.6 0.03 2.92 0.30 93 1005.3
20260506034550 9 302 0.0 1.6 0.03 2.92 0.30 93 1005.4
20260506034043 10 0 0.0 1.6 0.03 2.92 0.30 93 1005.4
20260506033542 9 0 0.0 1.6 0.03 2.92 0.30 93 1005.3
20260506033051 10 0 0.0 1.6 0.00 2.90 0.28 93 1005.4
20260506032541 10 0 0.0 1.6 0.00 2.90 0.28 93 1005.4
20260506032041 10 0 0.0 0.0 0.00 2.90 0.28 93 1005.5
20260506031548 10 0 0.0 0.0 0.00 2.90 0.28 93 1005.4
20260506031041 10 0 0.0 0.0 0.00 2.90 0.28 93 1005.5
20260506030544 10 0 0.0 0.0 0.00 2.90 0.28 93 1005.6
20260506030057 10 0 0.0 0.0 0.00 2.90 0.28 93 1005.7
20260506025538 10 0 0.0 0.0 0.00 2.95 0.28 93 1005.7
20260506025038 10 0 0.0 0.0 0.00 2.95 0.28 93 1005.7
20260506024553 10 0 0.0 0.0 0.00 2.95 0.28 93 1005.7
20260506024042 10 0 0.0 0.0 0.00 2.95 0.28 93 1005.8
20260506023542 10 0 0.0 0.0 0.00 2.95 0.28 93 1005.9
20260506023108 10 0 0.0 0.0 0.00 2.95 0.28 93 1005.9
20260506022541 10 0 0.0 0.0 0.00 2.95 0.28 93 1005.9
20260506022040 10 0 0.0 0.0 0.00 2.95 0.28 93 1006.0
20260506021609 10 0 0.0 0.0 0.00 2.95 0.28 93 1005.8
20260506021049 10 0 0.0 0.0 0.00 2.95 0.28 93 1005.9
20260506020538 10 0 0.0 0.0 0.00 2.95 0.28 93 1005.8
20260506020048 10 0 0.0 1.6 0.00 2.95 0.28 93 1006.0
20260506015541 10 0 0.0 1.6 0.00 2.95 0.28 93 1006.0
20260506015044 10 0 0.0 0.0 0.00 2.95 0.28 93 1006.0
20260506014550 10 0 0.0 0.0 0.03 2.95 0.28 93 1006.0
20260506014042 10 0 0.0 1.6 0.03 2.95 0.28 93 1006.1
20260506013541 10 0 0.0 1.6 0.03 2.95 0.28 93 1006.1
20260506013058 10 0 0.0 1.6 0.05 2.95 0.28 93 1006.1
20260506012541 10 0 0.0 0.0 0.05 2.95 0.28 93 1006.1
20260506012042 10 0 0.0 1.6 0.05 2.95 0.28 93 1005.9
20260506011604 10 0 0.0 1.6 0.05 2.95 0.28 93 1006.0
20260506011042 10 0 0.0 1.6 0.08 2.95 0.28 93 1005.8
20260506010539 10 0 0.0 1.6 0.05 2.92 0.25 93 1005.9
20260506010043 10 0 0.0 1.6 0.05 2.92 0.25 93 1005.8
20260506005543 10 0 0.0 1.6 0.08 2.92 0.25 93 1005.9
20260506005044 10 0 0.0 1.6 0.08 2.92 0.25 93 1005.9
20260506004546 10 0 0.0 1.6 0.05 2.90 0.23 93 1006.0
20260506004039 10 264 0.0 1.6 0.08 2.90 0.23 93 1006.0
20260506003541 10 360 0.0 1.6 0.05 2.90 0.20 93 1006.1
20260506003046 10 0 0.0 1.6 0.05 2.90 0.20 93 1006.0
20260506002540 10 0 0.0 1.6 0.05 2.90 0.20 93 1006.1
20260506002039 10 0 0.0 1.6 0.08 2.90 0.20 93 1006.2
20260506001554 10 316 0.0 1.6 0.08 2.90 0.20 93 1006.3
20260506001042 10 0 0.0 1.6 0.05 2.87 0.18 93 1006.2
20260506000539 10 0 0.0 1.6 0.08 2.87 0.18 93 1006.2
20260506000049 10 0 0.0 1.6 0.08 2.87 0.18 93 1006.4
20260505235539 10 0 0.0 1.6 0.08 2.84 0.18 93 1006.4
20260505235038 10 344 0.0 1.6 0.08 2.84 0.18 93 1006.5
20260505234551 10 320 0.0 1.6 0.08 2.84 0.18 93 1006.5
20260505234039 10 0 0.0 1.6 0.08 2.82 0.15 93 1006.7
20260505233538 10 0 0.0 0.0 0.08 2.82 0.15 93 1006.7
20260505233047 10 0 0.0 1.6 0.08 2.82 0.15 93 1006.7
20260505232541 10 0 0.0 1.6 0.08 2.82 0.15 93 1006.6
20260505232041 10 0 0.0 1.6 0.08 2.82 0.13 93 1006.7
20260505231604 10 0 0.0 1.6 0.08 2.82 0.13 93 1006.6
20260505231041 10 0 0.0 1.6 0.10 2.82 0.13 93 1006.7
20260505230541 10 0 0.0 1.6 0.08 2.79 0.10 93 1006.7
20260505230052 10 0 0.0 1.6 0.10 2.79 0.10 93 1006.7
20260505225539 10 0 0.0 1.6 0.08 2.79 0.08 93 1006.6
20260505225041 10 0 0.0 1.6 0.10 2.79 0.08 92 1006.7
20260505224554 10 0 0.0 1.6 0.08 2.77 0.08 92 1006.7
20260505224039 10 0 0.0 1.6 0.10 2.77 0.08 92 1006.6
20260505223538 10 344 0.0 1.6 0.13 2.77 0.08 92 1006.8
20260505223052 10 0 0.0 0.0 0.10 2.74 0.05 92 1006.7
20260505222542 10 0 0.0 0.0 0.13 2.74 0.05 92 1006.7
20260505222038 10 0 0.0 1.6 0.10 2.72 0.03 92 1006.8
20260505221545 10 0 0.0 1.6 0.13 2.72 0.03 92 1006.8
20260505221038 10 0 0.0 1.6 0.13 2.72 0.00 92 1006.8
20260505220539 10 0 0.0 1.6 0.13 2.72 0.00 92 1006.8
20260505220059 11 0 0.0 1.6 0.13 2.69 0.00 92 1006.9
20260505215543 11 0 0.0 3.2 0.15 2.72 2.69 92 1006.8
20260505215040 11 0 0.0 3.2 0.15 2.69 2.67 92 1006.8
20260505214556 11 0 0.0 1.6 0.18 2.69 2.67 92 1006.9
20260505214043 11 0 0.0 1.6 0.15 2.67 2.64 92 1006.9
20260505213538 11 0 0.0 1.6 0.13 2.64 2.62 92 1006.9
20260505213056 11 0 0.0 0.0 0.15 2.64 2.62 92 1006.9
20260505212538 11 0 0.0 0.0 0.15 2.62 2.62 92 1007.0
20260505212039 11 0 0.0 0.0 0.15 2.62 2.62 92 1007.1
20260505211549 11 0 0.0 1.6 0.18 2.62 2.59 92 1007.1
20260505211044 11 0 0.0 1.6 0.18 2.59 2.57 92 1007.2
20260505210539 11 314 0.0 1.6 0.18 2.59 2.57 92 1007.1
20260505210048 11 322 0.0 1.6 0.20 2.57 2.54 92 1007.3
20260505205541 11 0 0.0 0.0 0.20 2.54 2.54 92 1007.2
20260505205038 11 0 0.0 0.0 0.23 2.54 2.51 92 1007.3
20260505204552 11 0 0.0 0.0 0.25 2.51 2.49 92 1007.2
20260505204041 11 0 0.0 1.6 0.30 2.51 2.49 92 1007.3
20260505203543 11 0 0.0 1.6 0.36 2.51 2.49 92 1007.3
20260505203107 11 0 0.0 1.6 0.36 2.49 2.46 92 1007.2
20260505202539 11 325 0.0 1.6 0.43 2.46 2.44 92 1007.3
20260505202039 11 0 0.0 1.6 0.43 2.44 2.44 92 1007.3
20260505201554 11 0 0.0 1.6 0.46 2.44 2.41 92 1007.3
20260505201038 11 345 0.0 1.6 0.48 2.41 2.39 92 1007.2
20260505200539 11 0 0.0 1.6 0.51 2.39 2.36 92 1007.1
20260505200052 11 0 0.0 1.6 0.51 2.34 2.34 92 1007.2
20260505195542 11 0 0.0 1.6 0.56 2.34 2.31 92 1007.2
20260505195038 11 0 0.0 1.6 0.61 2.31 2.26 92 1007.2
20260505194545 11 0 0.0 3.2 0.64 2.26 2.24 92 1007.2
20260505194042 11 0 0.0 8.0 0.61 2.21 2.16 92 1007.2
20260505193540 11 0 1.6 8.0 0.61 2.16 2.11 91 1007.3
20260505193044 11 352 0.0 6.4 0.71 2.13 2.08 92 1007.2
20260505192543 11 0 0.0 6.4 0.69 2.06 2.01 91 1007.2
20260505192045 11 310 0.0 1.6 0.71 2.03 1.98 92 1007.2
20260505191542 11 0 0.0 1.6 0.71 1.98 1.96 91 1007.1
20260505191041 11 0 0.0 1.6 0.66 1.93 1.88 91 1007.3
20260505190539 11 0 0.0 1.6 0.66 1.88 1.85 91 1007.2
20260505190046 11 28 0.0 3.2 0.64 1.85 1.80 91 1007.3
20260505185540 11 0 0.0 3.2 0.61 1.78 1.73 91 1007.2
20260505185040 12 0 0.0 1.6 0.58 1.68 1.65 91 1007.0
20260505184549 12 343 0.0 1.6 0.58 1.63 1.57 91 1007.2
20260505184039 12 0 0.0 1.6 0.58 1.57 1.55 91 1007.2
20260505183542 12 0 0.0 1.6 0.53 1.50 1.47 91 1007.3
20260505183046 12 0 0.0 0.0 0.46 1.40 1.37 91 1007.3
20260505182538 12 0 0.0 1.6 0.41 1.35 1.30 91 1007.2
20260505182041 12 0 0.0 1.6 0.36 1.30 1.24 91 1007.2
20260505181552 12 0 0.0 0.0 0.41 1.27 1.22 91 1007.1
20260505181038 12 0 0.0 0.0 0.46 1.24 1.22 91 1007.2
20260505180540 12 0 0.0 0.0 0.46 1.22 1.17 91 1007.3
20260505180057 12 0 0.0 1.6 0.51 1.19 1.14 91 1007.3
20260505175539 12 0 0.0 1.6 0.53 1.17 1.12 91 1007.3
20260505175039 12 0 0.0 1.6 0.48 1.12 1.04 90 1007.2
20260505174547 12 0 0.0 1.6 0.46 1.04 0.99 90 1007.1
20260505174042 12 296 0.0 0.0 0.46 1.02 0.94 90 1007.1
20260505173541 12 0 0.0 1.6 0.46 0.99 0.94 90 1007.3
20260505173100 12 0 0.0 1.6 0.48 0.97 0.91 90 1007.2
20260505172538 12 0 0.0 1.6 0.51 0.94 0.89 90 1007.2
20260505172039 12 0 0.0 1.6 0.51 0.94 0.86 90 1007.3
20260505171547 12 0 0.0 0.0 0.46 0.86 0.81 90 1007.3
20260505171039 13 0 0.0 0.0 0.41 0.81 0.74 90 1007.4
20260505170540 13 0 0.0 1.6 0.36 0.74 0.69 89 1007.3
20260505170104 13 0 0.0 1.6 0.30 0.69 0.64 89 1007.3
20260505165538 13 0 0.0 1.6 0.28 0.64 0.56 89 1007.4
20260505165043 13 0 0.0 1.6 0.25 0.61 0.53 89 1007.4
20260505164550 13 0 0.0 1.6 0.25 0.58 0.51 88 1007.4
20260505164038 13 0 0.0 0.0 0.20 0.56 0.46 88 1007.5
20260505163541 13 0 0.0 1.6 0.18 0.53 0.46 88 1007.5
20260505163051 13 0 0.0 1.6 0.15 0.48 0.41 88 1007.4
20260505162538 13 341 0.0 1.6 0.10 0.46 0.36 88 1007.5
20260505162042 13 0 0.0 0.0 0.08 0.43 0.36 87 1007.5
20260505161614 14 0 0.0 0.0 0.08 0.43 0.36 87 1007.5
20260505161039 14 0 0.0 0.0 0.08 0.41 0.33 86 1007.5
20260505160542 14 0 0.0 1.6 0.05 0.38 0.30 86 1007.5
20260505153103 15 0 0.0 1.6 0.00 0.46 0.25 78 1007.5
20260505152540 15 0 0.0 1.6 0.00 0.46 0.25 77 1007.7
20260505152039 15 0 0.0 1.6 0.00 0.46 0.25 77 1007.6
20260505151558 15 0 0.0 0.0 0.00 0.46 0.25 76 1007.5
20260505151040 15 0 0.0 1.6 0.00 0.46 0.25 76 1007.7
20260505150542 15 0 0.0 1.6 0.00 0.46 0.25 75 1007.6
20260505140540 16 342 0.0 3.2 0.00 0.81 0.25 74 1008.1
20260505124554 16 283 0.0 1.6 0.00 0.81 0.25 78 1008.9
20260505124042 16 330 0.0 4.8 0.00 0.81 0.25 79 1009.0
20260505123541 15 292 0.0 4.8 0.00 0.81 0.25 79 1009.0
20260505123047 15 0 0.0 4.8 0.00 0.81 0.25 80 1009.0
20260505122544 15 0 0.0 3.2 0.00 0.81 0.25 78 1009.1
20260505122042 15 0 0.0 3.2 0.00 0.81 0.25 79 1009.2
20260505121608 15 270 0.0 1.6 0.00 0.81 0.25 79 1009.2
20260505121044 15 0 0.0 1.6 0.00 0.81 0.25 79 1009.1
20260505120541 15 0 0.0 4.8 0.00 0.81 0.25 79 1009.2
20260505120055 15 0 0.0 4.8 0.00 0.81 0.25 79 1009.2
20260505115546 15 257 0.0 1.6 0.00 0.81 0.25 80 1009.2
20260505115041 15 262 0.0 1.6 0.00 0.81 0.25 81 1009.3
20260505114548 15 290 0.0 3.2 0.00 0.81 0.25 81 1009.4
20260505114041 15 0 0.0 3.2 0.00 0.81 0.25 81 1009.4
20260505113544 15 269 0.0 1.6 0.00 0.81 0.25 81 1009.4
20260505113047 15 252 0.0 1.6 0.00 0.81 0.25 79 1009.5
20260505112541 15 0 0.0 6.4 0.00 0.81 0.25 80 1009.4
20260505112043 15 293 0.0 6.4 0.00 0.81 0.25 80 1009.6